Weather in Vilegodsk

Russia / Arkhangel'skaya Oblast'     61°09′29″N   48°17′07″E
temp.,
°C
wind,
m/s
gust,
m/s
humid.,
%
clouds,
%
prec.,
mm/h
press.,
hPa
HPBL,
m
16 september, thu
thu1600:00+4n4898100 0.6 10061020
03:00+4n41098100 0.9 1007853
06:00+4nnw41095100 0.1 1008871
09:00+5nnw51091100 0.1 1009905
12:00+7n4984100 0.2 1010987
15:00+6nnw5986100 0.6 1011838
18:00+5nnw41088100 0.1 1012704
21:00+4nnw4887100 0.1 1013724
17 september, fri
fri1700:00+4nnw388674 0.1 1013580
03:00+2nw389753 0.1 1014272
06:00+3nw3895100 0.0 1013575
09:00+3nw3697100 0.3 1014600
12:00+4nw2697100 0.3 1015407
15:00+6nne4786100 0.8 1016856
18:00+4n3884100 0.1 1018529
21:00+3n4985100 0.1 1019705
18 september, sat
sat1800:00+3nnw3785100 0.0 1019307
03:00+3nnw3988100 0.1 1020450
06:00+3nnw51085100 0.1 1021830
09:00+2n4878100 0.1 10221089
12:00+4nnw5869100 0.0 10221253
15:00+5nnw41066100 0.0 10221362
18:00+4nnw41070100 0.0 10221077
21:00+3nw41278100 0.0 1022703
19 september, sun
sun1900:00+2nnw41190100 0.0 1022623
03:00+1nnw4118787 0.0 1023581
06:000nnw4118999 0.0 1024610
09:00+3nnw4873100 0.0 10241178
12:00+5nnw4764100 0.1 10251332
15:00+5nnw3765100 0.1 10251329
18:00+4n3771100 0.0 1026621
21:00+3n3875100 0.0 1027460
20 september, mon
mon2000:00+3nne3666100 0.0 1028367
03:00+2n3773100 0.0 1029317
06:00+2n2572100 0.0 1031187
09:00+5ne346071 0.0 10321112
12:00+6nne335477 0.0 10321225
15:00+7nne33526 0.0 10311158
18:00+2n22745 0.0 103212
21:00+1ne11835 0.0 103310